Current Version              Previous Version:    01  02  03  04  05  06  07  08  09  10  11  12  13  14  15  16  17  18  19  20  21  22  23  24  25  26  27  28  29  30  
   31  32  33  34  35  36  37  38  39  40  41  42  43  44  45  46  47  48  49  50  51  52  53  54  55  56  57  58  59  60  

[Printable]
536
ASUS44 KFWD 310103
RWRTX
NORTH TEXAS HOURLY WEATHER ROUNDUP
NATIONAL WEATHER SERVICE FORT WORTH TX
800 PM CDT WED JUL 30 2014

NOTE: "FAIR" INDICATES FEW OR NO CLOUDS BELOW 12,000 FEET WITH NO
SIGNIFICANT WEATHER AND/OR OBSTRUCTIONS TO VISIBILITY.

TXZ118-119-310200-
DALLAS/FORT WORTH METROPLEX

CITY           SKY/WX    TMP DP  RH WIND       PRES   REMARKS
DFW AIRPORT    PTCLDY    88  69  53 SE10      29.89F HX  92
DALLAS LOVE    MOCLDY    86  70  58 SE14      29.90S HX  90
FTW MEACHAM    CLEAR     90  69  50 SE15      29.88S HX  94
DAL-EXECUTIVE  CLEAR     88  70  55 SE15      29.90S HX  93
FTW-ALLIANCE   PTCLDY    87  68  52 SE10G18   29.88F HX  90
FTW-NAS-JRB    MOCLDY    93  65  39 S10       29.92S HX  95
FTW-SPINKS     CLEAR     89  67  47 SE9       29.90S HAZE    HX  92
ARLINGTON      PTCLDY    89  66  46 SE13G20   29.89F HX  91
GRAND PRAIRIE  CLEAR     88  64  45 E8        29.91S
ADDISON        PTCLDY    86  68  54 SE15G22   29.92S
MESQUITE       CLEAR     84  70  61 SE12        N/A
LANCASTER      CLEAR     85  69  57 SE8       29.92S
$$

TXZ091>094-102>105-117-120-121-131>134-310200-
NORTH CENTRAL TEXAS

CITY           SKY/WX    TMP DP  RH WIND       PRES   REMARKS
SHRMAN/DENISON PTCLDY    77  70  80 E10       29.95S
GAINESVILLE    MOCLDY    79  72  77 E10       29.93F
BOWIE          CLEAR     82  73  73 SE8       29.89F
BRIDGEPORT     CLEAR     87  67  50 SE9       29.89F HX  90
DECATUR        CLEAR     85  69  58 E9        29.90F
DENTON         PTCLDY    85  71  63 SE9       29.89F HX  90
MCKINNEY       PTCLDY    83  70  64 SE10      29.92S
GREENVILLE     PTCLDY    81  70  69 E8        29.94S
ROCKWALL       CLEAR     83  71  67 E9        29.91S
TERRELL        CLEAR     87  69  54 SE12      29.93S HX  91
WAXAHACHIE     CLEAR     87  63  44 SE9       29.92S
CLEBURNE       CLEAR     90  70  51 SE14      29.91S HX  95
GRANBURY       CLEAR     91  69  48 SE12G20   29.88S HX  95
$$

TXZ083>090-098>101-113>116-127>130-139>142-154-155-310200-
WESTERN NORTH TEXAS

CITY           SKY/WX    TMP DP  RH WIND       PRES   REMARKS
WICHITA FALLS  CLOUDY    82  73  74 NE6       29.89R
WF-KICKAPOO    CLOUDY    83  71  67 E6        29.89F
VERNON         CLOUDY    84  71  65 N10       29.95R
ABILENE        PTCLDY    92  60  34 S8        29.87S HX  91
ABILENE-DYESS  MOCLDY    93  60  33 SE14      29.85S HX  93
BRECKENRIDGE   MOCLDY    96  53  23 S12       29.85S HX  93
GRAHAM         MOCLDY    91  61  36 SE12      29.84S HX  91
MINERAL WELLS  CLEAR     89  69  51 SE14      29.86F HX  93
STEPHENVILLE   CLEAR     90  61  37 SE12      29.92S HX  90
COMANCHE       CLEAR     92  51  24 S13       29.89S
BROWNWOOD      CLEAR     93  52  24 SE15      29.88S HX  90
COLEMAN        CLEAR     95  49  21 SE13      29.88S HX  91
BRADY          CLEAR     93  54  26 SE10      29.90S HX  91
$$

TXZ143>147-156>162-174-175-310200-
CENTRAL TEXAS

CITY           SKY/WX    TMP DP  RH WIND       PRES   REMARKS
WACO           PTCLDY    90  68  48 SE10      29.89F HX  94
WACO-TSTC      CLEAR     90  68  48 SE9       29.89F HX  93
WACO-MCGREGOR  PTCLDY    91  64  40 S13       29.90F HX  93
HILLSBORO      CLEAR     89  67  46 SE7       29.90S HX  92
CORSICANA      MOCLDY    87  71  58 SE13      29.93S HX  93
MEXIA          MOCLDY    86  69  55 SE6       29.91F HX  90
HEARNE         PTCLDY   N/A N/A N/A SE6       29.91S
CAMERON        PTCLDY    90  69  49 S7        29.90S HX  94
TEMPLE         PTCLDY    90  66  45 SE12      29.91F HX  92
KILLEEN        MOCLDY    90  63  40 SE14      29.91S HX  90
KILLEEN-SKYLRK PTCLDY    91  64  40 SE8       29.90F HX  93
FORT HOOD      PTCLDY    92  65  40 SE7       29.91S HX  94
GATESVILLE     PTCLDY    91  66  43 S10       29.92S HX  94
HAMILTON       CLEAR     91  58  33 S16G24    29.91F
LAMPASAS       PTCLDY    91  66  44 SE10      29.91S HX  93
$$

TXZ095>097-106>112-122>126-135>138-148>153-164>167-310200-
EAST TEXAS

CITY           SKY/WX    TMP DP  RH WIND       PRES   REMARKS
PARIS          MOCLDY    73  64  73 E15G21    29.99S
SULPHUR SPRNGS MOCLDY    76  69  78 E10       29.99S
CLARKSVILLE    MOCLDY    74  67  79 E9G16     30.00S
MOUNT PLEASANT CLOUDY    74  67  78 E6        30.00S
GILMER         CLOUDY    79  66  65 E5        29.99R
MINEOLA        CLOUDY    82  73  74 E3        29.97R
TYLER          CLOUDY    84  67  56 SE10      29.95F
LONGVIEW       CLOUDY    80  67  64 E8        29.97F
MARSHALL       CLOUDY    80  69  69 E6        30.01F
ATHENS         MOCLDY    82  70  65 SE6       29.93S
JACKSONVILLE   PTCLDY    82  70  67 E6        29.99S
HENDERSON      MOCLDY    81  70  69 E6        29.98S
NACOGDOCHES    CLEAR     82  70  65 E7        29.97F
LUFKIN         CLEAR     86  70  58 E8        29.96F HX  90
$$

SUPPLEMENTAL OBSERVATIONS (CENTRAL)

CITY           SKY/WX    TMP DP  RH WIND       PRES   REMARKS
$$

SUPPLEMENTAL OBSERVATIONS (WEST)

CITY           SKY/WX    TMP DP  RH WIND       PRES   REMARKS
$$

SUPPLEMENTAL OBSERVATIONS (EAST)

CITY           SKY/WX    TMP DP  RH WIND       PRES   REMARKS
$$

SUPPLEMENTAL OBSERVATIONS ARE A COLLECTION OF AUTOMATED INSTRUMENTS
THAT ARE MAINTAINED BY A VARIETY OF FEDERAL AND STATE AGENCIES.
CERTAIN ELEMENTS...SUCH AS HUMIDITY VALUES AND SUSTAINED WIND
SPEEDS...MAY BE APPROXIMATED.